Time,TemperatureF,DewpointF,PressureIn,WindDirection,WindDirectionDegrees,WindSpeedMPH,WindSpeedGustMPH,Humidity,HourlyPrecipIn,Conditions,Clouds,dailyrainin,SoftwareType,DateUTC
2013-10-05 04:37:00,59.2,53.6,29.97,North,-999,0.0,0.0,82,0.00,,,-99.99,FreeWX 2.04,2013-10-05 08:37:00,
2013-10-05 04:43:00,59.2,53.6,30.00,North,-999,0.0,0.0,82,0.00,,,-99.99,FreeWX 2.04,2013-10-05 08:43:00,
2013-10-05 07:49:00,59.2,53.1,30.00,North,-999,0.0,4.0,80,0.00,,,-99.99,FreeWX 2.04,2013-10-05 11:49:00,
2013-10-05 07:54:00,59.2,53.1,30.00,North,-999,0.0,0.0,80,0.00,,,-99.99,FreeWX 2.04,2013-10-05 11:54:00,
2013-10-05 07:59:00,59.2,53.1,30.00,North,-999,0.0,0.0,80,0.00,,,-99.99,FreeWX 2.04,2013-10-05 11:59:00,
2013-10-05 08:04:00,59.2,53.1,30.00,North,-999,0.0,0.0,80,0.00,,,-99.99,FreeWX 2.04,2013-10-05 12:04:00,
2013-10-05 08:09:00,59.2,53.1,29.97,North,-999,0.0,0.0,80,0.00,,,-99.99,FreeWX 2.04,2013-10-05 12:09:00,
2013-10-05 08:14:00,59.2,53.1,29.97,North,-999,0.0,5.4,80,0.00,,,-99.99,FreeWX 2.04,2013-10-05 12:14:00,
2013-10-05 08:19:00,59.4,53.2,29.97,North,-999,0.0,0.0,80,0.00,,,-99.99,FreeWX 2.04,2013-10-05 12:19:00,
2013-10-05 08:24:00,59.4,53.2,29.97,North,-999,0.0,0.0,80,0.00,,,-99.99,FreeWX 2.04,2013-10-05 12:24:00,
2013-10-05 08:29:00,59.4,53.2,29.97,North,-999,0.0,0.0,80,0.00,,,-99.99,FreeWX 2.04,2013-10-05 12:29:00,
2013-10-05 08:34:00,59.4,53.2,29.97,North,-999,0.0,0.0,80,0.00,,,-99.99,FreeWX 2.04,2013-10-05 12:34:00,
2013-10-05 08:39:00,59.4,53.2,29.97,North,-999,0.0,0.0,80,0.00,,,-99.99,FreeWX 2.04,2013-10-05 12:39:00,
2013-10-05 08:44:00,59.4,53.2,29.97,North,-999,0.0,0.0,80,0.00,,,-99.99,FreeWX 2.04,2013-10-05 12:44:00,
2013-10-05 08:49:00,59.4,53.2,29.97,North,-999,0.0,4.0,80,0.00,,,-99.99,FreeWX 2.04,2013-10-05 12:49:00,
2013-10-05 08:54:00,59.4,53.2,29.97,North,-999,0.0,0.0,80,0.00,,,-99.99,FreeWX 2.04,2013-10-05 12:54:00,
2013-10-05 08:59:00,59.4,53.2,29.97,North,-999,0.0,3.6,80,0.00,,,-99.99,FreeWX 2.04,2013-10-05 12:59:00,
2013-10-05 09:04:00,59.4,53.2,29.97,North,-999,0.0,3.6,80,0.00,,,-99.99,FreeWX 2.04,2013-10-05 13:04:00,
2013-10-05 09:09:00,59.4,53.2,30.00,North,-999,0.0,0.0,80,0.00,,,-99.99,FreeWX 2.04,2013-10-05 13:09:00,
2013-10-05 09:14:00,59.4,53.2,30.00,North,-999,0.0,0.0,80,0.00,,,-99.99,FreeWX 2.04,2013-10-05 13:14:00,
2013-10-05 09:19:00,59.4,53.2,30.00,North,-999,0.0,0.0,80,0.00,,,-99.99,FreeWX 2.04,2013-10-05 13:19:00,
2013-10-05 09:24:00,59.4,53.2,30.00,North,-999,0.0,0.0,80,0.00,,,-99.99,FreeWX 2.04,2013-10-05 13:24:00,
2013-10-05 09:29:00,59.5,53.4,30.00,North,-999,0.0,0.0,80,0.00,,,-99.99,FreeWX 2.04,2013-10-05 13:29:00,
2013-10-05 09:34:00,59.5,53.4,30.00,North,-999,0.0,0.0,80,0.00,,,-99.99,FreeWX 2.04,2013-10-05 13:34:00,
2013-10-05 09:39:00,59.5,53.4,29.97,North,-999,0.0,0.0,80,0.00,,,-99.99,FreeWX 2.04,2013-10-05 13:39:00,
2013-10-05 09:44:00,59.5,53.4,29.97,North,-999,0.0,2.7,80,0.00,,,-99.99,FreeWX 2.04,2013-10-05 13:44:00,
2013-10-05 09:49:00,59.5,53.4,29.97,North,-999,0.0,3.6,80,0.00,,,-99.99,FreeWX 2.04,2013-10-05 13:49:00,
2013-10-05 09:54:00,59.4,53.2,30.00,North,-999,0.0,0.0,80,0.00,,,-99.99,FreeWX 2.04,2013-10-05 13:54:00,
2013-10-05 09:59:00,59.4,53.2,30.00,North,-999,0.0,3.6,80,0.00,,,-99.99,FreeWX 2.04,2013-10-05 13:59:00,
2013-10-05 10:04:00,59.4,53.2,30.00,North,-999,0.0,0.0,80,0.00,,,-99.99,FreeWX 2.04,2013-10-05 14:04:00,
2013-10-05 10:09:00,59.4,53.2,30.00,North,-999,0.0,4.5,80,0.00,,,-99.99,FreeWX 2.04,2013-10-05 14:09:00,
2013-10-05 10:14:00,59.2,53.1,30.00,North,-999,0.0,0.0,80,0.00,,,-99.99,FreeWX 2.04,2013-10-05 14:14:00,
2013-10-05 10:19:00,59.2,53.1,30.00,North,-999,0.0,0.0,80,0.00,,,-99.99,FreeWX 2.04,2013-10-05 14:19:00,
2013-10-05 10:24:00,59.0,52.9,30.00,North,-999,0.0,3.1,80,0.04,,,-99.99,FreeWX 2.04,2013-10-05 14:24:00,
2013-10-05 10:29:00,59.0,52.9,30.00,North,-999,0.0,3.6,80,0.08,,,-99.99,FreeWX 2.04,2013-10-05 14:29:00,
2013-10-05 10:34:00,59.0,52.9,30.00,North,-999,0.0,4.0,80,0.12,,,-99.99,FreeWX 2.04,2013-10-05 14:34:00,
2013-10-05 10:39:00,58.8,52.7,30.00,North,-999,0.0,4.0,80,0.16,,,-99.99,FreeWX 2.04,2013-10-05 14:39:00,
2013-10-05 10:44:00,58.8,52.7,30.00,North,-999,0.0,5.4,80,0.20,,,-99.99,FreeWX 2.04,2013-10-05 14:44:00,
2013-10-05 10:49:00,58.8,52.7,30.00,North,-999,0.0,5.4,80,0.24,,,-99.99,FreeWX 2.04,2013-10-05 14:49:00,
2013-10-05 10:54:00,58.8,52.7,30.00,North,-999,0.0,4.0,80,0.24,,,-99.99,FreeWX 2.04,2013-10-05 14:54:00,
2013-10-05 10:59:00,58.8,52.7,30.00,North,-999,0.0,6.3,80,0.28,,,-99.99,FreeWX 2.04,2013-10-05 14:59:00,
2013-10-05 11:04:00,59.0,52.9,30.00,North,-999,0.0,4.9,80,0.28,,,-99.99,FreeWX 2.04,2013-10-05 15:04:00,
2013-10-05 11:09:00,59.0,52.9,30.00,North,-999,0.0,0.0,80,0.28,,,-99.99,FreeWX 2.04,2013-10-05 15:09:00,
2013-10-05 11:14:00,59.2,53.4,30.00,North,-999,0.0,6.3,81,0.28,,,-99.99,FreeWX 2.04,2013-10-05 15:14:00,
2013-10-05 11:19:00,59.2,53.1,30.00,North,-999,0.0,3.6,80,0.31,,,-99.99,FreeWX 2.04,2013-10-05 15:19:00,
2013-10-05 11:24:00,59.2,53.4,29.97,North,-999,0.0,4.9,81,0.28,,,-99.99,FreeWX 2.04,2013-10-05 15:24:00,
2013-10-05 11:29:00,59.2,53.4,29.97,ENE,59,1.0,4.0,81,0.24,,,-99.99,FreeWX 2.04,2013-10-05 15:29:00,
2013-10-05 11:34:00,59.2,53.1,29.97,North,-999,0.0,4.0,80,0.20,,,-99.99,FreeWX 2.04,2013-10-05 15:34:00,
2013-10-05 11:39:00,59.2,53.4,29.97,North,358,1.0,5.8,81,0.16,,,-99.99,FreeWX 2.04,2013-10-05 15:39:00,
2013-10-05 11:44:00,59.5,53.8,29.97,NNE,31,2.0,6.3,81,0.12,,,-99.99,FreeWX 2.04,2013-10-05 15:44:00,
2013-10-05 11:49:00,59.9,54.1,29.97,NNW,340,1.0,4.5,81,0.08,,,-99.99,FreeWX 2.04,2013-10-05 15:49:00,
2013-10-05 11:54:00,60.1,54.1,29.97,North,10,1.0,5.4,81,0.08,,,-99.99,FreeWX 2.04,2013-10-05 15:54:00,
2013-10-05 11:59:00,60.4,54.9,29.97,NE,37,1.0,4.9,82,0.04,,,-99.99,FreeWX 2.04,2013-10-05 15:59:00,
2013-10-05 12:04:00,60.8,55.2,29.97,ENE,67,1.0,4.0,82,0.04,,,-99.99,FreeWX 2.04,2013-10-05 16:04:00,
2013-10-05 12:09:00,61.0,55.4,29.94,ENE,78,1.0,6.3,82,0.04,,,-99.99,FreeWX 2.04,2013-10-05 16:09:00,
2013-10-05 12:14:00,60.8,54.9,29.94,North,-999,0.0,3.6,81,0.04,,,-99.99,FreeWX 2.04,2013-10-05 16:14:00,
2013-10-05 12:19:00,61.5,55.9,29.94,North,-999,0.0,3.1,82,0.00,,,-99.99,FreeWX 2.04,2013-10-05 16:19:00,
2013-10-05 12:24:00,61.5,55.9,29.94,North,-999,0.0,4.0,82,0.00,,,-99.99,FreeWX 2.04,2013-10-05 16:24:00,
2013-10-05 12:29:00,61.3,55.8,29.94,North,-999,0.0,7.4,82,0.00,,,-99.99,FreeWX 2.04,2013-10-05 16:29:00,
2013-10-05 12:34:00,61.0,55.0,29.94,North,-999,0.0,0.0,81,0.00,,,-99.99,FreeWX 2.04,2013-10-05 16:34:00,
2013-10-05 12:39:00,61.2,55.2,29.94,North,-999,0.0,0.0,81,0.00,,,-99.99,FreeWX 2.04,2013-10-05 16:39:00,
2013-10-05 12:44:00,61.2,55.2,29.94,North,-999,0.0,0.0,81,0.00,,,-99.99,FreeWX 2.04,2013-10-05 16:44:00,
2013-10-05 12:49:00,61.0,55.0,29.94,North,-999,0.0,4.9,81,0.00,,,-99.99,FreeWX 2.04,2013-10-05 16:49:00,
2013-10-05 12:54:00,60.6,54.7,29.91,East,97,1.0,3.6,81,0.00,,,-99.99,FreeWX 2.04,2013-10-05 16:54:00,
2013-10-05 12:59:00,60.6,54.7,29.91,East,85,1.0,3.6,81,0.00,,,-99.99,FreeWX 2.04,2013-10-05 16:59:00,
2013-10-05 13:04:00,60.6,54.7,29.91,North,-999,0.0,5.4,81,0.00,,,-99.99,FreeWX 2.04,2013-10-05 17:04:00,
2013-10-05 13:09:00,60.6,54.7,29.91,North,-999,0.0,4.9,81,0.00,,,-99.99,FreeWX 2.04,2013-10-05 17:09:00,
2013-10-05 13:14:00,60.3,54.3,29.91,North,-999,0.0,5.8,81,0.00,,,-99.99,FreeWX 2.04,2013-10-05 17:14:00,
2013-10-05 13:19:00,60.1,54.1,29.91,North,-999,0.0,4.0,81,0.00,,,-99.99,FreeWX 2.04,2013-10-05 17:19:00,
2013-10-05 13:24:00,60.1,54.1,29.94,North,-999,0.0,3.1,81,0.00,,,-99.99,FreeWX 2.04,2013-10-05 17:24:00,
2013-10-05 13:29:00,60.3,54.7,29.94,North,-999,0.0,3.1,82,0.00,,,-99.99,FreeWX 2.04,2013-10-05 17:29:00,
2013-10-05 13:34:00,60.4,54.9,29.94,North,-999,0.0,0.0,82,0.00,,,-99.99,FreeWX 2.04,2013-10-05 17:34:00,
2013-10-05 13:39:00,60.4,54.9,29.94,North,-999,0.0,0.0,82,0.00,,,-99.99,FreeWX 2.04,2013-10-05 17:39:00,
2013-10-05 13:44:00,60.4,54.9,29.94,North,-999,0.0,0.0,82,0.00,,,-99.99,FreeWX 2.04,2013-10-05 17:44:00,
2013-10-05 13:49:00,60.6,55.0,29.94,North,-999,0.0,0.0,82,0.00,,,-99.99,FreeWX 2.04,2013-10-05 17:49:00,
2013-10-05 13:54:00,61.0,55.8,29.94,North,-999,0.0,6.3,83,0.00,,,-99.99,FreeWX 2.04,2013-10-05 17:54:00,
2013-10-05 13:59:00,61.0,55.4,29.94,North,-999,0.0,4.5,82,0.00,,,-99.99,FreeWX 2.04,2013-10-05 17:59:00,
2013-10-05 14:04:00,61.2,55.9,29.94,North,-999,0.0,3.6,83,0.00,,,-99.99,FreeWX 2.04,2013-10-05 18:04:00,
2013-10-05 14:09:00,61.3,56.1,29.91,North,-999,0.0,3.6,83,0.00,,,-99.99,FreeWX 2.04,2013-10-05 18:09:00,
2013-10-05 14:14:00,61.3,56.1,29.91,North,-999,0.0,2.7,83,0.00,,,-99.99,FreeWX 2.04,2013-10-05 18:14:00,
2013-10-05 14:19:00,61.3,56.1,29.91,North,-999,0.0,3.1,83,0.00,,,-99.99,FreeWX 2.04,2013-10-05 18:19:00,
2013-10-05 14:24:00,61.2,55.9,29.91,North,-999,0.0,4.0,83,0.00,,,-99.99,FreeWX 2.04,2013-10-05 18:24:00,
2013-10-05 14:29:00,61.2,55.9,29.91,North,-999,0.0,3.6,83,0.00,,,-99.99,FreeWX 2.04,2013-10-05 18:29:00,
2013-10-05 14:34:00,61.2,55.9,29.91,North,-999,0.0,0.0,83,0.00,,,-99.99,FreeWX 2.04,2013-10-05 18:34:00,
2013-10-05 14:39:00,61.2,55.9,29.91,North,-999,0.0,5.4,83,0.00,,,-99.99,FreeWX 2.04,2013-10-05 18:39:00,
2013-10-05 14:44:00,61.0,55.8,29.91,North,-999,0.0,0.0,83,0.00,,,-99.99,FreeWX 2.04,2013-10-05 18:44:00,
2013-10-05 14:50:00,61.0,55.8,29.91,North,-999,0.0,6.3,83,0.00,,,-99.99,FreeWX 2.04,2013-10-05 18:50:00,
2013-10-05 14:55:00,61.0,55.8,29.91,West,261,1.0,4.5,83,0.00,,,-99.99,FreeWX 2.04,2013-10-05 18:55:00,
2013-10-05 15:00:00,61.2,55.9,29.91,North,-999,0.0,4.0,83,0.00,,,-99.99,FreeWX 2.04,2013-10-05 19:00:00,
2013-10-05 15:05:00,61.3,56.1,29.91,North,-999,0.0,4.5,83,0.00,,,-99.99,FreeWX 2.04,2013-10-05 19:05:00,
2013-10-05 15:10:00,61.3,56.1,29.91,North,-999,0.0,3.1,83,0.00,,,-99.99,FreeWX 2.04,2013-10-05 19:10:00,
2013-10-05 15:15:00,61.5,56.3,29.91,North,-999,0.0,0.0,83,0.00,,,-99.99,FreeWX 2.04,2013-10-05 19:15:00,
2013-10-05 15:20:00,61.9,56.7,29.91,North,-999,0.0,0.0,83,0.00,,,-99.99,FreeWX 2.04,2013-10-05 19:20:00,
2013-10-05 15:25:00,61.9,56.7,29.91,North,-999,0.0,0.0,83,0.00,,,-99.99,FreeWX 2.04,2013-10-05 19:25:00,
2013-10-05 15:30:00,61.9,56.7,29.91,North,-999,0.0,0.0,83,0.00,,,-99.99,FreeWX 2.04,2013-10-05 19:30:00,
2013-10-05 15:35:00,61.9,56.7,29.91,North,-999,0.0,0.0,83,0.00,,,-99.99,FreeWX 2.04,2013-10-05 19:35:00,
2013-10-05 15:40:00,62.1,56.8,29.91,North,-999,0.0,0.0,83,0.00,,,-99.99,FreeWX 2.04,2013-10-05 19:40:00,
2013-10-05 15:45:00,62.1,56.8,29.91,North,-999,0.0,0.0,83,0.00,,,-99.99,FreeWX 2.04,2013-10-05 19:45:00,
2013-10-05 15:50:00,62.2,57.0,29.91,North,-999,0.0,0.0,83,0.00,,,-99.99,FreeWX 2.04,2013-10-05 19:50:00,
2013-10-05 15:55:00,62.4,57.2,29.91,North,-999,0.0,0.0,83,0.00,,,-99.99,FreeWX 2.04,2013-10-05 19:55:00,
2013-10-05 16:00:00,62.4,57.6,29.91,North,-999,0.0,0.0,84,0.00,,,-99.99,FreeWX 2.04,2013-10-05 20:00:00,
2013-10-05 16:05:00,62.4,57.2,29.91,North,-999,0.0,0.0,83,0.00,,,-99.99,FreeWX 2.04,2013-10-05 20:05:00,
2013-10-05 16:10:00,62.4,57.2,29.88,North,-999,0.0,0.0,83,0.00,,,-99.99,FreeWX 2.04,2013-10-05 20:10:00,
2013-10-05 16:15:00,62.6,57.7,29.88,North,-999,0.0,0.0,84,0.00,,,-99.99,FreeWX 2.04,2013-10-05 20:15:00,
2013-10-05 16:20:00,62.6,57.7,29.88,North,-999,0.0,0.0,84,0.00,,,-99.99,FreeWX 2.04,2013-10-05 20:20:00,
2013-10-05 16:25:00,62.6,57.7,29.88,North,-999,0.0,0.0,84,0.00,,,-99.99,FreeWX 2.04,2013-10-05 20:25:00,
2013-10-05 16:30:00,62.6,57.7,29.88,North,-999,0.0,0.0,84,0.00,,,-99.99,FreeWX 2.04,2013-10-05 20:30:00,
2013-10-05 16:35:00,62.8,57.9,29.88,North,-999,0.0,0.0,84,0.00,,,-99.99,FreeWX 2.04,2013-10-05 20:35:00,
2013-10-05 16:40:00,62.6,57.4,29.88,North,-999,0.0,0.0,83,0.00,,,-99.99,FreeWX 2.04,2013-10-05 20:40:00,
2013-10-05 16:45:00,62.6,57.4,29.88,North,-999,0.0,0.0,83,0.00,,,-99.99,FreeWX 2.04,2013-10-05 20:45:00,
2013-10-05 16:50:00,62.6,57.4,29.88,North,-999,0.0,0.0,83,0.00,,,-99.99,FreeWX 2.04,2013-10-05 20:50:00,
2013-10-05 16:55:00,62.6,57.4,29.88,North,-999,0.0,0.0,83,0.00,,,-99.99,FreeWX 2.04,2013-10-05 20:55:00,
2013-10-05 17:00:00,62.6,57.4,29.88,North,-999,0.0,0.0,83,0.00,,,-99.99,FreeWX 2.04,2013-10-05 21:00:00,
2013-10-05 17:05:00,62.6,57.7,29.88,North,-999,0.0,0.0,84,0.00,,,-99.99,FreeWX 2.04,2013-10-05 21:05:00,
2013-10-05 17:10:00,62.6,57.7,29.88,North,-999,0.0,0.0,84,0.00,,,-99.99,FreeWX 2.04,2013-10-05 21:10:00,
2013-10-05 17:15:00,62.6,57.4,29.88,North,-999,0.0,0.0,83,0.00,,,-99.99,FreeWX 2.04,2013-10-05 21:15:00,
2013-10-05 17:20:00,62.6,57.4,29.88,North,-999,0.0,0.0,83,0.00,,,-99.99,FreeWX 2.04,2013-10-05 21:20:00,
2013-10-05 17:25:00,62.4,57.2,29.88,North,-999,0.0,0.0,83,0.00,,,-99.99,FreeWX 2.04,2013-10-05 21:25:00,
2013-10-05 17:30:00,62.4,57.2,29.88,North,-999,0.0,0.0,83,0.00,,,-99.99,FreeWX 2.04,2013-10-05 21:30:00,
2013-10-05 17:35:00,62.4,57.2,29.88,North,-999,0.0,0.0,83,0.00,,,-99.99,FreeWX 2.04,2013-10-05 21:35:00,
2013-10-05 17:40:00,62.4,57.2,29.88,North,-999,0.0,0.0,83,0.00,,,-99.99,FreeWX 2.04,2013-10-05 21:40:00,
2013-10-05 17:45:00,62.4,57.2,29.88,North,-999,0.0,0.0,83,0.00,,,-99.99,FreeWX 2.04,2013-10-05 21:45:00,
2013-10-05 17:50:00,62.4,57.2,29.88,North,-999,0.0,0.0,83,0.12,,,-99.99,FreeWX 2.04,2013-10-05 21:50:00,
2013-10-05 17:55:00,62.4,57.2,29.88,North,-999,0.0,0.0,83,0.12,,,-99.99,FreeWX 2.04,2013-10-05 21:55:00,
2013-10-05 18:00:00,62.2,57.0,29.88,North,-999,0.0,0.0,83,0.12,,,-99.99,FreeWX 2.04,2013-10-05 22:00:00,
2013-10-05 18:05:00,62.2,57.0,29.88,North,-999,0.0,0.0,83,0.12,,,-99.99,FreeWX 2.04,2013-10-05 22:05:00,
2013-10-05 18:10:00,62.2,57.0,29.88,North,-999,0.0,0.0,83,0.12,,,-99.99,FreeWX 2.04,2013-10-05 22:10:00,
2013-10-05 18:15:00,62.2,57.0,29.88,North,-999,0.0,0.0,83,0.12,,,-99.99,FreeWX 2.04,2013-10-05 22:15:00,
2013-10-05 18:20:00,62.2,57.0,29.88,North,-999,0.0,0.0,83,0.12,,,-99.99,FreeWX 2.04,2013-10-05 22:20:00,
2013-10-05 18:25:00,62.2,57.0,29.88,North,-999,0.0,0.0,83,0.12,,,-99.99,FreeWX 2.04,2013-10-05 22:25:00,
2013-10-05 18:30:00,62.2,57.0,29.88,North,-999,0.0,0.0,83,0.12,,,-99.99,FreeWX 2.04,2013-10-05 22:30:00,
2013-10-05 18:35:00,62.2,57.0,29.88,North,-999,0.0,0.0,83,0.12,,,-99.99,FreeWX 2.04,2013-10-05 22:35:00,
2013-10-05 18:40:00,62.1,56.8,29.88,North,-999,0.0,0.0,83,0.12,,,-99.99,FreeWX 2.04,2013-10-05 22:40:00,
2013-10-05 18:45:00,62.1,56.8,29.88,North,-999,0.0,0.0,83,0.12,,,-99.99,FreeWX 2.04,2013-10-05 22:45:00,
2013-10-05 18:50:00,62.1,56.8,29.88,North,-999,0.0,0.0,83,0.00,,,-99.99,FreeWX 2.04,2013-10-05 22:50:00,
2013-10-05 18:55:00,62.1,56.8,29.88,North,-999,0.0,0.0,83,0.00,,,-99.99,FreeWX 2.04,2013-10-05 22:55:00,
2013-10-05 19:00:00,62.1,56.8,29.88,North,-999,0.0,0.0,83,0.00,,,-99.99,FreeWX 2.04,2013-10-05 23:00:00,
2013-10-05 19:05:00,61.9,56.7,29.88,North,-999,0.0,0.0,83,0.00,,,-99.99,FreeWX 2.04,2013-10-05 23:05:00,
2013-10-05 19:10:00,61.9,56.7,29.88,North,-999,0.0,4.5,83,0.00,,,-99.99,FreeWX 2.04,2013-10-05 23:10:00,
2013-10-05 19:15:00,61.9,57.0,29.88,North,-999,0.0,0.0,84,0.00,,,-99.99,FreeWX 2.04,2013-10-05 23:15:00,
2013-10-05 19:20:00,61.9,56.7,29.88,North,-999,0.0,0.0,83,0.00,,,-99.99,FreeWX 2.04,2013-10-05 23:20:00,
2013-10-05 19:25:00,61.7,56.5,29.88,North,-999,0.0,0.0,83,0.00,,,-99.99,FreeWX 2.04,2013-10-05 23:25:00,
2013-10-05 19:30:00,61.7,56.8,29.88,North,-999,0.0,0.0,84,0.00,,,-99.99,FreeWX 2.04,2013-10-05 23:30:00,
2013-10-05 19:35:00,61.5,56.7,29.88,North,-999,0.0,2.7,84,0.00,,,-99.99,FreeWX 2.04,2013-10-05 23:35:00,
2013-10-05 19:40:00,61.5,56.7,29.88,North,-999,0.0,0.0,84,0.00,,,-99.99,FreeWX 2.04,2013-10-05 23:40:00,
2013-10-05 19:45:00,61.5,56.7,29.88,North,-999,0.0,0.0,84,0.00,,,-99.99,FreeWX 2.04,2013-10-05 23:45:00,
2013-10-05 19:50:00,61.5,56.7,29.88,North,-999,0.0,0.0,84,0.00,,,-99.99,FreeWX 2.04,2013-10-05 23:50:00,
2013-10-05 19:55:00,61.5,56.7,29.88,North,-999,0.0,5.4,84,0.00,,,-99.99,FreeWX 2.04,2013-10-05 23:55:00,
2013-10-05 20:00:00,61.5,56.7,29.88,North,-999,0.0,2.7,84,0.00,,,-99.99,FreeWX 2.04,2013-10-06 00:00:00,
2013-10-05 20:05:00,61.3,56.5,29.88,North,-999,0.0,4.5,84,0.00,,,-99.99,FreeWX 2.04,2013-10-06 00:05:00,
2013-10-05 20:10:00,61.2,56.3,29.88,North,-999,0.0,3.6,84,0.00,,,-99.99,FreeWX 2.04,2013-10-06 00:10:00,
2013-10-05 20:15:00,61.2,56.3,29.88,North,-999,0.0,3.6,84,0.00,,,-99.99,FreeWX 2.04,2013-10-06 00:15:00,
2013-10-05 20:20:00,61.0,56.1,29.88,North,-999,0.0,3.6,84,0.00,,,-99.99,FreeWX 2.04,2013-10-06 00:20:00,
2013-10-05 20:25:00,61.0,56.1,29.88,North,-999,0.0,4.9,84,0.00,,,-99.99,FreeWX 2.04,2013-10-06 00:25:00,
2013-10-05 20:30:00,61.0,56.1,29.88,North,-999,0.0,3.1,84,0.00,,,-99.99,FreeWX 2.04,2013-10-06 00:30:00,
2013-10-05 20:35:00,61.0,56.1,29.88,North,-999,0.0,3.6,84,0.00,,,-99.99,FreeWX 2.04,2013-10-06 00:35:00,
2013-10-05 20:40:00,61.0,56.1,29.85,North,-999,0.0,4.9,84,0.00,,,-99.99,FreeWX 2.04,2013-10-06 00:40:00,
2013-10-05 20:45:00,61.0,56.1,29.85,North,-999,0.0,3.1,84,0.00,,,-99.99,FreeWX 2.04,2013-10-06 00:45:00,
2013-10-05 20:50:00,61.0,56.5,29.85,North,-999,0.0,5.4,85,0.00,,,-99.99,FreeWX 2.04,2013-10-06 00:50:00,
2013-10-05 20:55:00,61.0,56.5,29.85,North,-999,0.0,0.0,85,0.00,,,-99.99,FreeWX 2.04,2013-10-06 00:55:00,
2013-10-05 21:00:00,61.0,56.5,29.85,North,-999,0.0,3.6,85,0.00,,,-99.99,FreeWX 2.04,2013-10-06 01:00:00,
2013-10-05 21:05:00,60.8,56.3,29.85,North,-999,0.0,4.0,85,0.00,,,-99.99,FreeWX 2.04,2013-10-06 01:05:00,
2013-10-05 21:10:00,60.8,56.3,29.85,North,-999,0.0,0.0,85,0.00,,,-99.99,FreeWX 2.04,2013-10-06 01:10:00,
2013-10-05 21:15:00,60.8,56.3,29.85,North,-999,0.0,0.0,85,0.00,,,-99.99,FreeWX 2.04,2013-10-06 01:15:00,
2013-10-05 21:20:00,61.0,56.5,29.85,North,-999,0.0,0.0,85,0.00,,,-99.99,FreeWX 2.04,2013-10-06 01:20:00,
2013-10-05 21:25:00,61.0,56.5,29.85,North,-999,0.0,5.4,85,0.00,,,-99.99,FreeWX 2.04,2013-10-06 01:25:00,
2013-10-05 21:30:00,60.8,56.3,29.85,North,-999,0.0,0.0,85,0.00,,,-99.99,FreeWX 2.04,2013-10-06 01:30:00,
2013-10-05 21:35:00,60.8,56.3,29.85,North,-999,0.0,0.0,85,0.00,,,-99.99,FreeWX 2.04,2013-10-06 01:35:00,
2013-10-05 21:40:00,61.0,56.5,29.85,North,-999,0.0,4.9,85,0.00,,,-99.99,FreeWX 2.04,2013-10-06 01:40:00,
2013-10-05 21:45:00,61.0,56.5,29.85,North,-999,0.0,3.6,85,0.00,,,-99.99,FreeWX 2.04,2013-10-06 01:45:00,
2013-10-05 21:50:00,61.0,56.5,29.85,North,-999,0.0,2.7,85,0.00,,,-99.99,FreeWX 2.04,2013-10-06 01:50:00,
2013-10-05 21:55:00,61.0,56.5,29.85,North,-999,0.0,0.0,85,0.00,,,-99.99,FreeWX 2.04,2013-10-06 01:55:00,
2013-10-05 22:00:00,61.0,56.5,29.85,North,-999,0.0,3.6,85,0.00,,,-99.99,FreeWX 2.04,2013-10-06 02:00:00,
2013-10-05 22:05:00,61.0,56.5,29.85,North,-999,0.0,0.0,85,0.00,,,-99.99,FreeWX 2.04,2013-10-06 02:05:00,
2013-10-05 22:10:00,61.0,56.8,29.85,North,-999,0.0,0.0,86,0.00,,,-99.99,FreeWX 2.04,2013-10-06 02:10:00,